EW2734 Weather Reports


Display with metric or nautical units.
time (UTC)temp
F
wind
direction
speed
MPH
gust
MPH
rain 1hr
in
rain 24hr
in
rain mn
in
humidity
%
barometer
mb
20260510230003 73 313 0.0 1.0 0.00 0.00 0.00 32 1019.3
20260510224509 72 113 0.0 1.0 0.00 0.00 0.00 35 1019.2
20260510223100 72 323 0.0 4.0 0.00 0.00 0.00 33 1019.3
20260510221557 72 328 0.0 5.0 0.00 0.00 0.00 34 1019.3
20260510220055 72 335 0.0 5.0 0.00 0.00 0.00 34 1019.6
20260510214607 71 84 0.0 6.0 0.00 0.00 0.00 37 1019.7
20260510213054 71 70 4.0 8.0 0.00 0.00 0.00 35 1019.8
20260510211556 70 60 0.0 10.0 0.00 0.00 0.00 36 1020.0
20260510210052 71 87 5.0 8.0 0.00 0.00 0.00 34 1020.4
20260510204557 71 357 0.0 11.0 0.00 0.00 0.00 37 1020.4
20260510203050 71 78 0.0 10.0 0.00 0.00 0.00 38 1020.4
20260510201547 70 79 0.0 6.0 0.00 0.00 0.00 38 1020.4
20260510200052 70 16 0.0 1.0 0.00 0.00 0.00 38 1020.3
20260510194548 69 355 0.0 1.0 0.00 0.00 0.00 39 1020.2
20260510193052 69 73 0.0 6.0 0.00 0.00 0.00 40 1020.1
20260510191544 68 72 0.0 11.0 0.00 0.00 0.00 41 1020.0
20260510190041 69 87 0.0 1.0 0.00 0.00 0.00 41 1020.0
20260510184549 68 65 0.0 2.0 0.00 0.00 0.00 44 1019.9
20260510183038 67 117 0.0 4.0 0.00 0.00 0.00 47 1020.1
20260510181535 66 303 0.0 1.0 0.00 0.00 0.00 51 1020.5
20260510180034 66 343 0.0 0.0 0.00 0.00 0.00 53 1020.8
20260510174533 65 72 0.0 3.0 0.00 0.00 0.00 55 1020.7
20260510173030 64 22 0.0 1.0 0.00 0.00 0.00 57 1020.7
20260510171527 64 330 0.0 1.0 0.00 0.00 0.00 59 1020.6
20260510170024 63 73 0.0 1.0 0.00 0.00 0.00 62 1020.1
20260510164521 61 241 0.0 0.0 0.00 0.00 0.00 67 1020.0
20260510163018 59 314 0.0 1.0 0.00 0.00 0.00 70 1020.1
20260510161511 56 59 0.0 5.0 0.00 0.00 0.00 75 1019.5
20260510160018 54 81 2.0 9.0 0.00 0.00 0.00 77 1019.3
20260510154510 52 280 0.0 1.0 0.00 0.00 0.00 79 1019.5
20260510153010 51 48 0.0 1.0 0.00 0.00 0.00 80 1019.2
20260510151508 51 49 0.0 4.0 0.00 0.00 0.00 81 1019.4
20260510150013 50 340 5.0 13.0 0.00 0.00 0.00 82 1019.6
20260510144518 50 8 7.0 15.0 0.00 0.00 0.00 83 1019.3
20260510143004 51 353 9.0 16.0 0.00 0.00 0.00 84 1019.6
20260510141559 52 322 7.0 14.0 0.00 0.00 0.00 84 1019.0
20260510140057 52 12 4.0 14.0 0.00 0.00 0.00 81 1018.9
20260510134559 53 10 5.0 18.0 0.00 0.00 0.00 78 1018.5
20260510133047 54 11 5.0 11.0 0.00 0.00 0.00 75 1018.2
20260510131546 55 13 0.0 11.0 0.00 0.00 0.00 76 1018.0
20260510130045 56 349 0.0 2.0 0.00 0.00 0.00 70 1018.2
20260510124553 56 45 0.0 6.0 0.00 0.00 0.00 69 1016.9
20260510123037 56 316 0.0 5.0 0.00 0.00 0.00 69 1016.3
20260510121533 55 37 0.0 0.0 0.00 0.00 0.00 70 1015.3
20260510120031 54 287 0.0 0.0 0.00 0.00 0.00 70 1015.0
20260510114535 54 274 0.0 0.0 0.00 0.00 0.00 71 1014.7
20260510113026 54 30 0.0 1.0 0.00 0.00 0.00 70 1014.4
20260510111524 55 55 0.0 1.0 0.00 0.00 0.00 70 1014.3
20260510110022 55 54 0.0 1.0 0.00 0.00 0.00 72 1014.3
20260510104531 55 115 0.0 1.0 0.00 0.00 0.00 72 1014.0
20260510103020 55 55 0.0 1.0 0.00 0.00 0.00 73 1014.1
20260510101519 55 216 0.0 0.0 0.00 0.00 0.00 74 1013.5
20260510100018 55 5 0.0 1.0 0.00 0.00 0.00 75 1014.1
20260510094532 55 63 0.0 2.0 0.00 0.00 0.00 75 1014.1
20260510093015 56 45 0.0 2.0 0.00 0.00 0.00 73 1014.1
20260510091512 56 40 0.0 0.0 0.00 0.00 0.00 72 1014.3
20260510090010 57 338 0.0 1.0 0.00 0.00 0.00 71 1014.2
20260510084508 58 321 0.0 4.0 0.00 0.00 0.00 70 1014.2
20260510083005 58 58 0.0 1.0 0.00 0.00 0.00 72 1013.9
20260510081510 58 11 0.0 5.0 0.00 0.00 0.00 74 1013.0
20260510080002 58 49 0.0 7.0 0.00 0.00 0.00 73 1012.6
20260510074558 58 3 0.0 6.0 0.00 0.00 0.00 73 1013.2
20260510073103 58 80 0.0 9.0 0.00 0.00 0.00 74 1012.8
20260510071552 58 335 5.0 12.0 0.00 0.00 0.00 75 1012.9
20260510070049 57 353 0.0 4.0 0.00 0.00 0.00 77 1012.1
20260510064544 58 15 0.0 1.0 0.00 0.00 0.00 76 1011.6
20260510063040 58 12 0.0 0.0 0.00 0.00 0.00 75 1011.0
20260510061537 58 259 0.0 0.0 0.00 0.00 0.00 75 1010.5
20260510060035 58 336 0.0 0.0 0.00 0.00 0.00 74 1010.2
20260510054540 58 76 0.0 0.0 0.00 0.00 0.00 74 1009.7
20260510053025 58 77 0.0 1.0 0.00 0.00 0.00 74 1009.5
20260510051531 58 96 0.0 0.0 0.00 0.00 0.00 74 1009.1
20260510050019 58 106 0.0 1.0 0.00 0.00 0.00 72 1008.5
20260510044519 60 87 0.0 3.0 0.00 0.00 0.00 69 1008.3
20260510043022 61 56 1.0 5.0 0.00 0.00 0.00 67 1008.5
20260510041518 62 64 2.0 9.0 0.00 0.00 0.00 64 1008.4
20260510040016 63 85 0.0 7.0 0.00 0.00 0.00 62 1008.5
20260510034516 65 72 5.0 11.0 0.00 0.00 0.00 58 1008.0
20260510033016 66 70 8.0 15.0 0.00 0.00 0.00 56 1007.8
20260510031516 67 79 8.0 12.0 0.00 0.00 0.00 54 1007.3
20260510030016 68 94 7.0 14.0 0.00 0.00 0.00 53 1006.4
20260510024514 68 109 6.0 12.0 0.00 0.00 0.00 54 1005.8
20260510023015 69 60 4.0 9.0 0.00 0.00 0.00 53 1005.3
20260510021518 70 86 3.0 8.0 0.00 0.00 0.00 52 1004.8
20260510020013 72 70 2.0 8.0 0.00 0.00 0.00 48 1004.5
20260510014515 74 74 6.0 12.0 0.00 0.00 0.00 44 1004.0
20260510013013 78 82 1.0 3.0 0.00 0.00 0.00 34 1003.3
20260510011512 83 44 0.0 0.0 0.00 0.00 0.00 28 1002.7
20260510010012 84 251 0.0 3.0 0.00 0.00 0.00 26 1002.4
20260510004510 85 229 5.0 9.0 0.00 0.00 0.00 25 1002.3
20260510003010 86 217 7.0 12.0 0.00 0.00 0.00 23 1002.4
20260510001509 86 271 8.0 15.0 0.00 0.00 0.00 21 1002.3
20260510000011 87 221 14.0 18.0 0.00 0.00 0.00 21 1002.3
20260509234509 88 228 10.0 15.0 0.00 0.00 0.00 20 1002.4
20260509233004 88 226 10.0 15.0 0.00 0.00 0.00 21 1002.7
20260509231504 87 259 15.0 21.0 0.00 0.00 0.00 21 1003.0